User: anonymous   Login
Location: El Corozo
(10.5833°N, 66.9667°W)
Time: 16:08:05
(UTC+00:00)
Language:

CENTAUR R/B - Orbit

View from above orbital plane
View from above orbital plane
View from above satellite
View from above satellite

Ground track
Ground track

The orbit data is extracted from the following two-line orbital elements,

1 26906U 01040B   24202.18005507  .00000857  00000-0  60399-3 0  9994
2 26906  63.4300 157.3944 0570980 340.1173  17.8381 13.44548117  9669
Epoch (UTC): 20 July 2024 04:19:16
Eccentricity: 0.0570980
inclination: 63.4300°
perigee height: 666 km
apogee height: 1519 km
right ascension of ascending node: 157.3944°
argument of perigee: 340.1173°
revolutions per day: 13.44548117
mean anomaly at epoch: 17.8381°
orbit number at epoch: 966

The dashed part of the orbit path shows where the satellite is in the earth's shadow,  

DLR